Date String (YYYY-MM-DD hh:mm:ss) UTC,Instrument flags,Ambient pressure (hPa),Sample flow (lpm),Bypass flow (lpm),Sample temperature (°C),Ambient temperature (°C),ASC tube jacket temperature (°C),LED temperature (°C),Box temperature (°C),Sample RH (%),Span deviation,Mass concentration (μg/m³),Mass concentration (μg/m³),Mass concentration (μg/m³)
DateTimeUTC,F1_M11,P_M11,Q1_M11,Q2_M11,T1_M11,T2_M11,T3_M11,T4_M11,T5_M11,U1_M11,ZSPAN_M11,X2_M11,X0_M11,X1_M11
2022-01-26 18:00:00,,0824.3,5.01,0.00,23.0,22.3,00.0,31.8,24.8,08.3,0000.0,0005.19,0007.96,0005.00
2022-01-26 18:01:00,,0824.3,4.99,0.00,23.0,22.3,00.0,31.8,24.8,08.3,0000.0,0005.18,0007.96,0005.01
2022-01-26 18:02:00,,0824.3,4.99,0.00,23.0,22.3,00.0,31.8,24.9,08.3,0000.0,0005.18,0007.95,0005.02
2022-01-26 18:07:00,,0824.3,4.98,0.00,23.1,22.4,00.0,31.9,25.0,08.0,0000.0,0005.16,0007.81,0005.03
2022-01-26 18:08:00,,0824.3,5.01,0.00,23.1,22.4,00.0,32.0,25.0,08.0,0000.0,0005.16,0007.81,0005.03
2022-01-26 18:09:00,,0824.2,5.00,0.00,23.1,22.4,00.0,32.0,25.0,08.0,0000.0,0005.14,0007.78,0005.01
2022-01-26 18:10:00,,0824.2,4.99,0.00,23.2,22.4,00.0,32.0,25.0,08.0,0000.0,0005.11,0007.74,0004.98
2022-01-26 18:11:00,,0824.1,4.99,0.00,23.2,22.4,00.0,32.0,25.0,08.0,0000.0,0005.09,0008.30,0004.96
2022-01-26 18:12:00,,0824.1,5.01,0.00,23.2,22.4,00.0,32.0,25.0,08.0,0000.0,0005.06,0008.38,0004.94
2022-01-26 18:13:00,,0824.2,5.01,0.00,23.2,22.5,00.0,32.0,25.0,08.0,0000.0,0005.04,0008.35,0004.92
2022-01-26 18:14:00,,0824.2,4.99,0.00,23.2,22.5,00.0,32.0,25.0,08.1,0000.0,0005.02,0008.07,0004.90
2022-01-26 18:15:00,,0824.2,5.00,0.00,23.2,22.5,00.0,32.1,25.0,08.0,0000.0,0004.99,0007.80,0004.88
2022-01-26 18:16:00,,0824.1,5.00,0.00,23.2,22.5,00.0,32.1,25.0,08.2,0000.0,0004.97,0007.76,0004.86
2022-01-26 18:17:00,,0824.1,5.01,0.00,23.3,22.5,00.0,32.1,25.1,08.0,0000.0,0004.96,0007.75,0004.86
2022-01-26 18:18:00,,0824.1,5.00,0.00,23.3,22.5,00.0,32.1,25.1,08.0,0000.0,0004.94,0007.77,0004.84
2022-01-26 18:19:00,,0824.1,4.99,0.00,23.3,22.5,00.0,32.1,25.1,07.9,0000.0,0004.93,0007.79,0004.83
2022-01-26 18:20:00,,0824.1,5.00,0.00,23.3,22.6,00.0,32.1,25.1,07.9,0000.0,0004.92,0007.79,0004.82
2022-01-26 18:21:00,,0824.1,5.01,0.00,23.3,22.6,00.0,32.1,25.1,08.1,0000.0,0004.95,0007.84,0004.84
2022-01-26 18:22:00,,0824.1,5.01,0.00,23.3,22.6,00.0,32.2,25.1,08.1,0000.0,0004.99,0007.34,0004.87
2022-01-26 18:23:00,,0824.1,4.99,0.00,23.3,22.6,00.0,32.2,25.2,08.1,0000.0,0005.02,0007.15,0004.90
2022-01-26 18:24:00,,0824.1,4.99,0.00,23.4,22.6,00.0,32.2,25.2,08.2,0000.0,0005.08,0007.34,0004.94
2022-01-26 18:25:00,,0824.0,5.00,0.00,23.3,22.6,00.0,32.2,25.2,08.2,0000.0,0005.14,0007.70,0004.98
2022-01-26 18:26:00,,0823.9,5.01,0.00,23.3,22.5,00.0,32.2,25.1,08.4,0000.0,0005.21,0007.83,0005.03
2022-01-26 18:27:00,,0823.9,5.00,0.00,23.3,22.5,00.0,32.2,25.1,08.5,0000.0,0005.25,0007.91,0005.07
2022-01-26 18:28:00,,0824.0,4.99,0.00,23.3,22.5,00.0,32.2,25.1,08.4,0000.0,0005.27,0008.06,0005.09
2022-01-26 18:29:00,,0824.0,5.01,0.00,23.3,22.5,00.0,32.2,25.1,08.2,0000.0,0005.31,0008.11,0005.12
2022-01-26 18:30:00,,0824.0,5.00,0.00,23.3,22.5,00.0,32.2,25.1,08.2,0000.0,0005.36,0008.19,0005.15
2022-01-26 18:31:00,,0824.0,5.00,0.00,23.3,22.5,00.0,32.2,25.0,08.3,0000.0,0005.40,0008.27,0005.19
2022-01-26 18:32:00,,0823.9,4.98,0.00,23.3,22.5,00.0,32.2,25.0,08.1,0000.0,0005.42,0008.29,0005.20
2022-01-26 18:33:00,,0823.9,4.99,0.00,23.3,22.5,00.0,32.2,25.0,08.2,0000.0,0005.40,0008.29,0005.19
2022-01-26 18:34:00,,0823.9,5.01,0.00,23.3,22.4,00.0,32.2,25.0,07.9,0000.0,0005.39,0008.26,0005.17
2022-01-26 18:35:00,,0823.9,4.99,0.00,23.3,22.4,00.0,32.2,25.0,08.0,0000.0,0005.33,0008.18,0005.12
2022-01-26 18:36:00,,0823.8,5.00,0.00,23.3,22.4,00.0,32.2,25.0,08.0,0000.0,0005.29,0007.90,0005.09
2022-01-26 18:37:00,,0823.9,5.01,0.00,23.3,22.4,00.0,32.2,25.0,08.0,0000.0,0005.26,0007.81,0005.06
2022-01-26 18:38:00,,0823.8,5.00,0.00,23.3,22.4,00.0,32.2,25.0,07.9,0000.0,0005.21,0007.75,0005.01
2022-01-26 18:39:00,,0823.9,5.01,0.00,23.3,22.4,00.0,32.2,25.0,07.8,0000.0,0005.15,0007.55,0004.96
2022-01-26 18:40:00,,0823.9,5.00,0.00,23.3,22.5,00.0,32.2,25.0,08.0,0000.0,0005.09,0007.42,0004.89
2022-01-26 18:41:00,,0823.9,5.00,0.00,23.3,22.5,00.0,32.2,25.0,07.9,0000.0,0005.01,0007.70,0004.83
2022-01-26 18:42:00,,0823.8,5.00,0.00,23.3,22.5,00.0,32.2,25.0,07.8,0000.0,0004.97,0007.98,0004.78
2022-01-26 18:43:00,,0823.8,5.00,0.00,23.3,22.5,00.0,32.2,25.1,07.7,0000.0,0004.93,0007.97,0004.72
2022-01-26 18:44:00,,0823.8,5.00,0.00,23.3,22.5,00.0,32.2,25.1,07.6,0000.0,0004.86,0007.89,0004.66
2022-01-26 18:45:00,,0823.8,5.01,0.00,23.3,22.6,00.0,32.2,25.1,07.6,0000.0,0004.80,0007.82,0004.61
2022-01-26 18:46:00,,0823.8,5.00,0.00,23.3,22.6,00.0,32.2,25.1,07.5,0000.0,0004.75,0007.76,0004.56
2022-01-26 18:47:00,,0823.8,5.00,0.00,23.3,22.6,00.0,32.2,25.1,07.5,0000.0,0004.70,0007.70,0004.51
2022-01-26 18:48:00,,0823.8,4.99,0.00,23.4,22.6,00.0,32.3,25.2,07.6,0000.0,0004.63,0007.64,0004.44
2022-01-26 18:49:00,,0823.7,5.00,0.00,23.4,22.6,00.0,32.3,25.2,07.4,0000.0,0004.55,0007.52,0004.38
2022-01-26 18:50:00,,0823.8,5.00,0.00,23.4,22.6,00.0,32.3,25.2,07.4,0000.0,0004.49,0007.49,0004.32
2022-01-26 18:51:00,,0823.7,5.00,0.00,23.4,22.6,00.0,32.3,25.2,07.4,0000.0,0004.45,0007.44,0004.28
2022-01-26 18:52:00,,0823.7,5.00,0.00,23.4,22.6,00.0,32.3,25.2,07.8,0000.0,0004.42,0006.94,0004.26
2022-01-26 18:53:00,,0823.6,5.00,0.00,23.4,22.7,00.0,32.3,25.2,08.0,0000.0,0004.41,0006.20,0004.26
2022-01-26 18:54:00,,0823.7,5.00,0.00,23.4,22.7,00.0,32.3,25.2,07.8,0000.0,0004.39,0006.08,0004.25
2022-01-26 18:55:00,,0823.7,5.00,0.00,23.4,22.7,00.0,32.3,25.2,07.7,0000.0,0004.38,0006.03,0004.26
2022-01-26 18:56:00,,0823.7,4.99,0.00,23.4,22.7,00.0,32.3,25.2,07.7,0000.0,0004.41,0006.17,0004.28
2022-01-26 18:57:00,,0823.7,5.01,0.00,23.4,22.7,00.0,32.3,25.2,07.9,0000.0,0004.48,0006.45,0004.31
2022-01-26 18:58:00,,0823.6,4.99,0.00,23.5,22.7,00.0,32.3,25.2,08.0,0000.0,0004.57,0006.70,0004.37
2022-01-26 18:59:00,,0823.6,5.00,0.00,23.5,22.7,00.0,32.4,25.3,08.2,0000.0,0004.66,0006.83,0004.46
